Back to catalog

ARIANE 3 DEB

SYLDA

AliveGTO
NORAD 15166·DEBRIS·🇫🇷 France

Launched Aug 4, 1984 from Guiana Space Centre

Loading…

TLE

AgingSource: Space-Track

Epoch: Sep 14, 2026, 08:21 UTC

1 15166U 84081D   26257.34838646 -.00000867  00000-0 -14400-1 0  9997
2 15166   6.3940 210.1086 6993255 234.4175  39.3501  2.42873563278352

Track ARIANE 3 DEB in real time with AllMySat

Download on the App Store